Location: Unnamed
(47.6264°N, 122.3366°W)
Time: 05:49:00
(UTC-07:00)

X-37B - Pass Details

Date: 27 June 2021
Orbit: 383 x 392 km, 45.0° (Epoch: 01 July)

Event Time Altitude Azimuth Distance (km) Brightness Sun altitude
Rises 00:39:03 0° 273° (W) 2,257 4.6 -18.7°
Reaches altitude 10° 00:41:13 10° 264° (W) 1,403 3.4 -18.7°
Enters shadow 00:41:47 14° 259° (W) 1,197 3.0 -18.7°
